Regional Weather Roundup
Issued by NWS

Home | Current Version | Previous Version | Text Only | Print | Product List | Glossary Off
Versions: 1 2 3 4 5 6 7 8 9 10 11 12 13 14 15 16 17 18 19 20 21 22 23 24 25 26 27 28 29 30 31 32 33 34 35 36 37 38 39 40 41 42 43 44 45 46 47 48 49 50

000
ASUS43 KOAX 221802
RWRNE

WEATHER ROUNDUP FOR NEBRASKA
NATIONAL WEATHER SERVICE OMAHA NE
1200 PM CST MON DEC 22 2014

NOTES: SATELLITE DATA IS BEING USED TO AUGMENT CLOUD COVER ABOVE
       12000 FEET.
       "FAIR" INDICATES FEW OR NO CLOUDS BELOW 12,000 FEET WITH NO
       SIGNIFICANT WEATHER AND/OR OBSTRUCTIONS TO VISIBILITY.

  * THESE STATIONS DO NOT REPORT WEATHER SUCH AS RAIN...SNOW OR FOG.

NEZ001>004-019>022-054>056-221900-
NEBRASKA PANHANDLE

CITY           SKY/WX    TMP DP  RH WIND       PRES   REMARKS
SCOTTSBLUFF    SUNNY     38  25  59 W18       29.66F WCI  28
6HR MIN TEMP:  31; 6HR MAX TEMP:  38;

ALLIANCE       SUNNY     39  24  55 NW17G28   29.60F WCI  30
6HR MIN TEMP:  30; 6HR MAX TEMP:  39;

CHADRON        SUNNY     41  25  53 NW23G39   29.61F
6HR MIN TEMP:  34; 6HR MAX TEMP:  41;

SIDNEY         MOSUNNY   38  21  50 NW23G32   29.66F WCI  27
6HR MIN TEMP:  29; 6HR MAX TEMP:  39; 6HR PCP: TRACE;

$$

NEZ057>060-069>072-079>082-221900-
SOUTHWEST NEBRASKA

CITY           SKY/WX    TMP DP  RH WIND       PRES   REMARKS
NORTH PLATTE   SUNNY     47  27  45 NW20G29   29.56F
6HR MIN TEMP:  33; 6HR MAX TEMP:  47;

IMPERIAL       MOSUNNY   44  25  47 NW24G32   29.62F
6HR MIN TEMP:  36; 6HR MAX TEMP:  44;

MCCOOK         MOSUNNY   48  27  44 NW29      29.59F
6HR MIN TEMP:  37; 6HR MAX TEMP:  48;

$$

NEZ005>010-023>029-035>040-094-221900-
NORTH CENTRAL NEBRASKA

CITY           SKY/WX    TMP DP  RH WIND       PRES   REMARKS
VALENTINE      CLOUDY    40  28  62 NW24G36   29.49F WCI  29
6HR MIN TEMP:  37; 6HR MAX TEMP:  40;

AINSWORTH      CLOUDY    38  30  71 NW20      29.49F WCI  28
BROKEN BOW     MOSUNNY   45  32  60 NW23G35   29.50F
6HR MIN TEMP:  38; 6HR MAX TEMP:  45;

$$

NEZ041-046>049-061>064-073>077-083>087-221900-
SOUTH CENTRAL NEBRASKA

CITY           SKY/WX    TMP DP  RH WIND       PRES   REMARKS
GRAND ISLAND   CLOUDY    46  35  65 NW23G31   29.50F
6HR MIN TEMP:  37; 6HR MAX TEMP:  46; 6HR PCP: TRACE;

AURORA         CLOUDY    45  37  72 NW20G32   29.48F
HASTINGS       PTSUNNY   45  34  65 NW21      29.50F
6HR MIN TEMP:  36; 6HR MAX TEMP:  46; 6HR PCP: TRACE;

KEARNEY *      PTSUNNY   46  36  66 W16G22    29.52F
$$

NEZ011>018-030>034-042>045-221900-
NORTHEAST NEBRASKA

CITY           SKY/WX    TMP DP  RH WIND       PRES   REMARKS
NORFOLK        CLOUDY    42  38  85 NW14      29.43F
6HR MIN TEMP:  39; 6HR MAX TEMP:  43;

BLAIR          LGT RAIN  43  41  92 SE8       29.44F
COLUMBUS *     CLOUDY    43  36  75 NW15      29.46F
TEKAMAH        LGT RAIN  43  41  93 SE14      29.45F
6HR MIN TEMP:  42; 6HR MAX TEMP:  43; 6HR PCP:  0.14;

$$

NEZ050>053-065>068-078-088>093-221900-
SOUTHEAST NEBRASKA

CITY           SKY/WX    TMP DP  RH WIND       PRES   REMARKS
LINCOLN        CLOUDY    45  39  79 NW13      29.47F
6HR MIN TEMP:  43; 6HR MAX TEMP:  45; 6HR PCP:  0.06;

OMAHA EPPLEY   LGT RAIN  42  41  96 SE13      29.47F FOG
6HR MIN TEMP:  42; 6HR MAX TEMP:  43; 6HR PCP:  0.25;

FALLS CITY     RAIN      44  50 100 S10       29.47F
6HR MIN TEMP:  42; 6HR MAX TEMP:  44; 6HR PCP:  0.37;

NEBRASKA CITY  LGT RAIN  42  42 100 S8        29.45F
$$

NEZ044-045-051>053-067-221900-
OMAHA AREA

CITY           SKY/WX    TMP DP  RH WIND       PRES   REMARKS
OMAHA EPPLEY   LGT RAIN  42  41  96 SE13      29.47F FOG
6HR MIN TEMP:  42; 6HR MAX TEMP:  43; 6HR PCP:  0.25;

BLAIR          LGT RAIN  43  41  92 SE8       29.44F
WAHOO          CLOUDY    43  39  88 NW9       29.44F
$$


USA.gov is the U.S. government's official web portal to all federal, state and local government web resources and services.